RYR90UU EBCI-LIRF

Flight info

Callsign RYR90UU
Flight time 1h 42m
Altitude 37000
Route SOPOK Y863 OGLOR DCT EMGOD L607 ABUKA DCT TEDGO DCT BATUB DCT TIRUL M738 NATAG DCT LORLO DCT UNTAD DCT LUMAV DCT SUKOM DCT PELEG M726 GAVRA Y345 RITEB
Aircraft B738/M-SDE3FGILRWY/SB1

Departure

Time 2026-05-07 21:01
Airport Brussels South Charleroi Airport (EBCI)

Arrival

Time 2026-05-07 22:44
Airport Rome–Fiumicino Leonardo da Vinci International Airport (LIRF)
Time Latitude Longitude Altitude Speed Heading
2026-05-07 20:37 50.46806 4.46875 584 ft 0 kts 335°
2026-05-07 20:52 50.46802 4.46878 584 ft 3 kts 335°
2026-05-07 20:52 50.46782 4.46892 584 ft 2 kts 336°
2026-05-07 20:52 50.46765 4.46908 584 ft 4 kts 302°
2026-05-07 20:52 50.46761 4.46935 585 ft 4 kts 248°
2026-05-07 20:53 50.46771 4.46965 584 ft 3 kts 245°
2026-05-07 20:53 50.46771 4.46966 584 ft 3 kts 245°
2026-05-07 20:55 50.46762 4.46936 585 ft 8 kts 245°
2026-05-07 20:55 50.46734 4.46837 586 ft 9 kts 245°
2026-05-07 20:55 50.46694 4.46770 588 ft 9 kts 187°
2026-05-07 20:56 50.46637 4.46804 590 ft 9 kts 155°
2026-05-07 20:56 50.46593 4.46758 590 ft 11 kts 247°
2026-05-07 20:56 50.46549 4.46605 590 ft 18 kts 245°
2026-05-07 20:56 50.46496 4.46423 588 ft 18 kts 245°
2026-05-07 20:57 50.46444 4.46243 590 ft 18 kts 245°
2026-05-07 20:57 50.46393 4.46069 592 ft 17 kts 245°
2026-05-07 20:57 50.46344 4.45902 596 ft 17 kts 245°
2026-05-07 20:57 50.46296 4.45741 596 ft 16 kts 245°
2026-05-07 20:58 50.46252 4.45585 598 ft 15 kts 245°
2026-05-07 20:58 50.46209 4.45436 598 ft 15 kts 245°
2026-05-07 20:58 50.46167 4.45293 598 ft 14 kts 246°
2026-05-07 20:58 50.46127 4.45155 597 ft 15 kts 245°
2026-05-07 20:59 50.46076 4.44980 595 ft 20 kts 245°
2026-05-07 20:59 50.46019 4.44782 595 ft 20 kts 245°
2026-05-07 20:59 50.45963 4.44591 598 ft 19 kts 245°
2026-05-07 20:59 50.45900 4.44414 598 ft 18 kts 233°
2026-05-07 21:00 50.45824 4.44261 598 ft 18 kts 232°
2026-05-07 21:00 50.45748 4.44108 594 ft 18 kts 232°
2026-05-07 21:00 50.45666 4.43983 593 ft 15 kts 185°
2026-05-07 21:00 50.45636 4.44084 593 ft 12 kts 69°
2026-05-07 21:01 50.45733 4.44421 598 ft 67 kts 65°
2026-05-07 21:01 50.46015 4.45390 591 ft 130 kts 65°
2026-05-07 21:01 50.46474 4.46937 760 ft 167 kts 64°
2026-05-07 21:01 50.46982 4.48551 1552 ft 167 kts 58°
2026-05-07 21:02 50.47815 4.49883 2203 ft 179 kts 44°
2026-05-07 21:02 50.48777 4.51283 2643 ft 201 kts 47°
2026-05-07 21:02 50.49755 4.53020 2840 ft 223 kts 52°
2026-05-07 21:02 50.50779 4.55021 3095 ft 244 kts 53°
2026-05-07 21:03 50.51855 4.57186 3571 ft 257 kts 53°
2026-05-07 21:03 50.52947 4.59395 4352 ft 260 kts 53°
2026-05-07 21:03 50.54084 4.61687 5153 ft 264 kts 53°
2026-05-07 21:03 50.55224 4.63986 5927 ft 268 kts 53°
2026-05-07 21:04 50.56363 4.66290 6663 ft 273 kts 52°
2026-05-07 21:04 50.57538 4.68669 7376 ft 277 kts 52°
2026-05-07 21:04 50.58725 4.71079 8107 ft 281 kts 52°
2026-05-07 21:04 50.59929 4.73525 8842 ft 285 kts 52°
2026-05-07 21:05 50.61150 4.76008 9581 ft 289 kts 52°
2026-05-07 21:05 50.62389 4.78528 10271 ft 294 kts 52°
2026-05-07 21:05 50.63683 4.81166 10479 ft 316 kts 52°
2026-05-07 21:05 50.65064 4.84004 10738 ft 334 kts 55°
2026-05-07 21:06 50.66029 4.87359 11252 ft 342 kts 80°
2026-05-07 21:06 50.66034 4.91089 11949 ft 343 kts 103°
2026-05-07 21:06 50.65389 4.94706 12690 ft 345 kts 108°
2026-05-07 21:06 50.64651 4.98335 13370 ft 350 kts 109°
2026-05-07 21:07 50.63893 5.02011 14065 ft 355 kts 109°
2026-05-07 21:07 50.63135 5.05729 14735 ft 359 kts 109°
2026-05-07 21:07 50.62377 5.09498 15430 ft 362 kts 109°
2026-05-07 21:07 50.61619 5.13301 16116 ft 366 kts 109°
2026-05-07 21:08 50.60856 5.17143 16785 ft 370 kts 108°
2026-05-07 21:08 50.60084 5.21035 17465 ft 374 kts 108°
2026-05-07 21:08 50.59303 5.24965 18144 ft 378 kts 108°
2026-05-07 21:08 50.58217 5.28726 18691 ft 380 kts 129°
2026-05-07 21:09 50.56374 5.31697 19326 ft 380 kts 139°
2026-05-07 21:09 50.54425 5.34538 19917 ft 384 kts 139°
2026-05-07 21:09 50.52458 5.37400 20472 ft 388 kts 139°
2026-05-07 21:09 50.50469 5.40302 21020 ft 392 kts 139°
2026-05-07 21:10 50.48468 5.43240 21583 ft 395 kts 139°
2026-05-07 21:10 50.46453 5.46208 22153 ft 399 kts 139°
2026-05-07 21:10 50.44427 5.49201 22692 ft 402 kts 139°
2026-05-07 21:10 50.42382 5.52223 23240 ft 406 kts 139°
2026-05-07 21:11 50.40320 5.55271 23747 ft 409 kts 139°
2026-05-07 21:11 50.38232 5.58335 24189 ft 412 kts 139°
2026-05-07 21:11 50.34029 5.64539 25096 ft 418 kts 139°
2026-05-07 21:12 50.31910 5.67663 25538 ft 420 kts 139°
2026-05-07 21:12 50.29769 5.70808 25963 ft 423 kts 139°
2026-05-07 21:12 50.27615 5.73964 26372 ft 426 kts 139°
2026-05-07 21:12 50.25632 5.77428 26742 ft 433 kts 123°
2026-05-07 21:13 50.24410 5.81737 27146 ft 437 kts 107°
2026-05-07 21:13 50.23650 5.86332 27594 ft 439 kts 105°
2026-05-07 21:13 50.22916 5.90989 27958 ft 443 kts 105°
2026-05-07 21:13 50.22169 5.95673 28311 ft 446 kts 105°
2026-05-07 21:14 50.21398 6.00366 28679 ft 448 kts 105°
2026-05-07 21:14 50.20603 6.05088 29052 ft 451 kts 105°
2026-05-07 21:14 50.19794 6.09832 29413 ft 453 kts 106°
2026-05-07 21:14 50.18982 6.14597 29762 ft 456 kts 104°
2026-05-07 21:15 50.18440 6.19488 30073 ft 460 kts 95°
2026-05-07 21:15 50.18393 6.24407 30349 ft 462 kts 85°
2026-05-07 21:15 50.18714 6.29414 30650 ft 464 kts 84°
2026-05-07 21:15 50.19077 6.34423 30927 ft 466 kts 83°
2026-05-07 21:16 50.19435 6.39461 31192 ft 468 kts 84°
2026-05-07 21:16 50.19772 6.44516 31518 ft 468 kts 84°
2026-05-07 21:16 50.20089 6.49566 31949 ft 466 kts 84°
2026-05-07 21:16 50.20394 6.54589 32353 ft 465 kts 84°
2026-05-07 21:17 50.20695 6.59614 32677 ft 465 kts 85°
2026-05-07 21:17 50.20980 6.64640 32979 ft 466 kts 87°
2026-05-07 21:17 50.21028 6.69697 33320 ft 465 kts 91°
2026-05-07 21:17 50.20932 6.74734 33693 ft 464 kts 92°
2026-05-07 21:18 50.20795 6.79759 34034 ft 463 kts 93°
2026-05-07 21:18 50.20657 6.84777 34293 ft 464 kts 92°
2026-05-07 21:18 50.20533 6.89817 34512 ft 464 kts 92°
2026-05-07 21:18 50.20423 6.94854 34769 ft 464 kts 92°
2026-05-07 21:19 50.20323 6.99886 35030 ft 464 kts 92°
2026-05-07 21:19 50.20225 7.04923 35262 ft 465 kts 92°
2026-05-07 21:19 50.20125 7.09964 35483 ft 465 kts 92°
2026-05-07 21:19 50.20023 7.15014 35710 ft 466 kts 92°
2026-05-07 21:20 50.19919 7.20062 35982 ft 465 kts 92°
2026-05-07 21:20 50.19811 7.25099 36256 ft 464 kts 92°
2026-05-07 21:20 50.19686 7.30134 36459 ft 465 kts 95°
2026-05-07 21:20 50.19230 7.35121 36624 ft 465 kts 105°
2026-05-07 21:21 50.18296 7.39936 36824 ft 463 kts 110°
2026-05-07 21:21 50.17252 7.44692 37016 ft 464 kts 110°
2026-05-07 21:21 50.15138 7.54259 37068 ft 469 kts 110°
2026-05-07 21:22 50.13064 7.63893 37072 ft 467 kts 110°
2026-05-07 21:22 50.11033 7.73424 37089 ft 462 kts 110°
2026-05-07 21:23 50.09001 7.82906 37073 ft 461 kts 110°
2026-05-07 21:23 50.06702 7.92182 37070 ft 457 kts 121°
2026-05-07 21:24 50.03188 8.00372 37085 ft 455 kts 127°
2026-05-07 21:24 49.99604 8.08414 37086 ft 456 kts 127°
2026-05-07 21:25 49.95995 8.16609 37087 ft 457 kts 126°
2026-05-07 21:25 49.92439 8.24729 37088 ft 459 kts 126°
2026-05-07 21:26 49.88818 8.32984 37068 ft 460 kts 126°
2026-05-07 21:26 49.85197 8.41109 37082 ft 461 kts 130°
2026-05-07 21:27 49.80715 8.48126 37088 ft 459 kts 141°
2026-05-07 21:27 49.76004 8.54800 37087 ft 460 kts 139°
2026-05-07 21:28 49.70817 8.60427 37095 ft 454 kts 159°
2026-05-07 21:28 49.64809 8.63018 37099 ft 448 kts 174°
2026-05-07 21:29 49.58659 8.64577 37092 ft 448 kts 174°
2026-05-07 21:29 49.52509 8.66256 37100 ft 449 kts 173°
2026-05-07 21:30 49.46380 8.68127 37093 ft 451 kts 166°
2026-05-07 21:30 49.40564 8.71865 37085 ft 454 kts 158°
2026-05-07 21:31 49.34840 8.75965 37082 ft 453 kts 158°
2026-05-07 21:31 49.29118 8.80003 37088 ft 452 kts 159°
2026-05-07 21:32 49.23408 8.83961 37075 ft 451 kts 159°
2026-05-07 21:32 49.17682 8.87896 37057 ft 451 kts 159°
2026-05-07 21:33 49.11956 8.91831 37088 ft 454 kts 159°
2026-05-07 21:33 49.06146 8.95816 37091 ft 462 kts 159°
2026-05-07 21:34 49.00249 8.99872 37077 ft 466 kts 159°
2026-05-07 21:34 48.94329 9.03923 37068 ft 467 kts 159°
2026-05-07 21:35 48.89394 9.07283 37075 ft 467 kts 159°
2026-05-07 21:35 48.83465 9.11310 37074 ft 467 kts 159°
2026-05-07 21:36 48.77534 9.15330 37072 ft 466 kts 159°
2026-05-07 21:36 48.71622 9.19328 37065 ft 464 kts 159°
2026-05-07 21:37 48.65733 9.23301 37073 ft 463 kts 160°
2026-05-07 21:37 48.59832 9.27118 37073 ft 459 kts 163°
2026-05-07 21:38 48.53802 9.30222 37082 ft 457 kts 166°
2026-05-07 21:38 48.47760 9.33193 37083 ft 457 kts 165°
2026-05-07 21:39 48.41721 9.36227 37082 ft 457 kts 165°
2026-05-07 21:39 48.35695 9.39296 37082 ft 457 kts 165°
2026-05-07 21:40 48.29708 9.42346 37085 ft 458 kts 165°
2026-05-07 21:40 48.23674 9.45409 37061 ft 458 kts 165°
2026-05-07 21:41 48.17644 9.48462 37077 ft 458 kts 165°
2026-05-07 21:41 48.11598 9.51515 37081 ft 458 kts 165°
2026-05-07 21:42 48.05550 9.54561 37080 ft 459 kts 165°
2026-05-07 21:42 47.99683 9.58444 37067 ft 467 kts 150°
2026-05-07 21:43 47.94323 9.63969 37070 ft 469 kts 148°
2026-05-07 21:43 47.88975 9.69559 37062 ft 470 kts 149°
2026-05-07 21:44 47.83595 9.75093 37056 ft 470 kts 149°
2026-05-07 21:44 47.78200 9.80579 37062 ft 470 kts 149°
2026-05-07 21:45 47.72798 9.86047 37068 ft 470 kts 149°
2026-05-07 21:45 47.67395 9.91504 37069 ft 470 kts 149°
2026-05-07 21:46 47.61990 9.96951 37070 ft 470 kts 149°
2026-05-07 21:46 47.56587 10.02384 37054 ft 470 kts 150°
2026-05-07 21:47 47.51181 10.07805 37073 ft 469 kts 150°
2026-05-07 21:47 47.45811 10.13177 37077 ft 469 kts 150°
2026-05-07 21:48 47.40397 10.18579 37060 ft 470 kts 150°
2026-05-07 21:48 47.34983 10.23968 37086 ft 469 kts 150°
2026-05-07 21:49 47.29571 10.29342 37091 ft 469 kts 150°
2026-05-07 21:49 47.24154 10.34707 37072 ft 469 kts 150°
2026-05-07 21:50 47.18744 10.40054 37048 ft 468 kts 150°
2026-05-07 21:50 47.13335 10.45374 37079 ft 469 kts 150°
2026-05-07 21:51 47.07925 10.50702 37101 ft 466 kts 151°
2026-05-07 21:51 47.02127 10.54692 37080 ft 457 kts 168°
2026-05-07 21:52 46.96029 10.57307 37091 ft 458 kts 168°
2026-05-07 21:52 46.89911 10.60009 37091 ft 460 kts 168°
2026-05-07 21:53 46.83777 10.62782 37067 ft 462 kts 167°
2026-05-07 21:53 46.77639 10.65541 37071 ft 461 kts 168°
2026-05-07 21:54 46.71499 10.68252 37074 ft 460 kts 170°
2026-05-07 21:54 46.65282 10.70369 37046 ft 457 kts 173°
2026-05-07 21:55 46.59137 10.72277 37055 ft 454 kts 173°
2026-05-07 21:55 46.53000 10.74099 37103 ft 448 kts 172°
2026-05-07 21:56 46.46904 10.76157 37065 ft 451 kts 172°
2026-05-07 21:56 46.40787 10.78201 37060 ft 452 kts 172°
2026-05-07 21:57 46.34644 10.80198 37094 ft 453 kts 173°
2026-05-07 21:57 46.28493 10.82184 37100 ft 452 kts 173°
2026-05-07 21:58 46.22356 10.84178 37103 ft 453 kts 171°
2026-05-07 21:58 46.16360 10.87229 37091 ft 459 kts 163°
2026-05-07 21:59 46.10433 10.90688 37084 ft 460 kts 163°
2026-05-07 21:59 46.04488 10.94119 37052 ft 460 kts 163°
2026-05-07 22:00 45.98542 10.97481 37044 ft 459 kts 164°
2026-05-07 22:00 45.92599 11.00806 37040 ft 458 kts 164°
2026-05-07 22:01 45.86667 11.04115 37054 ft 457 kts 164°
2026-05-07 22:01 45.80736 11.07417 37034 ft 456 kts 165°
2026-05-07 22:02 45.74823 11.10704 37040 ft 455 kts 165°
2026-05-07 22:02 45.68926 11.13974 37041 ft 456 kts 165°
2026-05-07 22:03 45.63001 11.17251 37038 ft 457 kts 165°
2026-05-07 22:03 45.57069 11.20526 37028 ft 458 kts 165°
2026-05-07 22:04 45.51156 11.23781 37032 ft 459 kts 165°
2026-05-07 22:04 45.45194 11.27057 37037 ft 460 kts 165°
2026-05-07 22:05 45.39208 11.30340 37016 ft 461 kts 165°
2026-05-07 22:05 45.33214 11.33619 37024 ft 462 kts 165°
2026-05-07 22:06 45.27213 11.36895 37027 ft 462 kts 165°
2026-05-07 22:06 45.21213 11.40163 37026 ft 462 kts 165°
2026-05-07 22:07 45.15221 11.43420 37019 ft 461 kts 166°
2026-05-07 22:07 45.09237 11.46664 37020 ft 460 kts 166°
2026-05-07 22:08 45.03254 11.49900 37018 ft 460 kts 166°
2026-05-07 22:08 44.97284 11.53122 36997 ft 459 kts 166°
2026-05-07 22:09 44.91328 11.56331 37009 ft 458 kts 166°
2026-05-07 22:09 44.85372 11.59532 37019 ft 458 kts 166°
2026-05-07 22:10 44.79353 11.62231 37007 ft 447 kts 178°
2026-05-07 22:10 44.73219 11.63416 37008 ft 444 kts 180°
2026-05-07 22:11 44.67090 11.64572 37012 ft 445 kts 179°
2026-05-07 22:11 44.60950 11.65810 37012 ft 446 kts 179°
2026-05-07 22:12 44.54817 11.67060 37012 ft 445 kts 179°
2026-05-07 22:12 44.48691 11.68302 37010 ft 444 kts 179°
2026-05-07 22:13 44.42623 11.69530 37000 ft 443 kts 179°
2026-05-07 22:13 44.36543 11.70758 37016 ft 441 kts 179°
2026-05-07 22:14 44.30483 11.71979 37025 ft 439 kts 179°
2026-05-07 22:14 44.24438 11.73194 37025 ft 438 kts 179°
2026-05-07 22:15 44.18405 11.74401 37035 ft 438 kts 180°
2026-05-07 22:15 44.12371 11.75601 37029 ft 438 kts 179°
2026-05-07 22:16 44.06352 11.76797 37034 ft 436 kts 180°
2026-05-07 22:16 44.00338 11.77989 36980 ft 437 kts 180°
2026-05-07 22:17 43.97306 11.78587 36520 ft 441 kts 180°
2026-05-07 22:17 43.94282 11.79188 35994 ft 439 kts 180°
2026-05-07 22:17 43.91264 11.79782 35415 ft 438 kts 180°
2026-05-07 22:17 43.88242 11.80379 34753 ft 439 kts 180°
2026-05-07 22:18 43.85226 11.80977 34158 ft 438 kts 180°
2026-05-07 22:18 43.79194 11.82166 32818 ft 436 kts 179°
2026-05-07 22:18 43.76213 11.82801 32370 ft 433 kts 177°
2026-05-07 22:19 43.73269 11.83658 31887 ft 431 kts 175°
2026-05-07 22:19 43.70361 11.84614 31421 ft 429 kts 174°
2026-05-07 22:19 43.67472 11.85594 30955 ft 426 kts 173°
2026-05-07 22:19 43.64608 11.86560 30487 ft 422 kts 174°
2026-05-07 22:20 43.61762 11.87504 30040 ft 419 kts 174°
2026-05-07 22:20 43.58932 11.88426 29493 ft 417 kts 174°
2026-05-07 22:20 43.56119 11.89332 29011 ft 413 kts 173°
2026-05-07 22:20 43.53373 11.90209 28538 ft 410 kts 173°
2026-05-07 22:21 43.50607 11.91088 28063 ft 406 kts 173°
2026-05-07 22:21 43.47865 11.91957 27603 ft 403 kts 173°
2026-05-07 22:21 43.45146 11.92818 27146 ft 400 kts 173°
2026-05-07 22:21 43.42441 11.93673 26677 ft 397 kts 173°
2026-05-07 22:22 43.39758 11.94522 26215 ft 394 kts 172°
2026-05-07 22:22 43.37095 11.95362 25767 ft 392 kts 172°
2026-05-07 22:22 43.34448 11.96195 25328 ft 389 kts 172°
2026-05-07 22:22 43.31821 11.97024 24902 ft 387 kts 172°
2026-05-07 22:23 43.29200 11.97849 24440 ft 386 kts 172°
2026-05-07 22:23 43.26586 11.98672 23996 ft 385 kts 171°
2026-05-07 22:23 43.23979 11.99492 23524 ft 384 kts 171°
2026-05-07 22:23 43.21382 12.00308 23020 ft 382 kts 171°
2026-05-07 22:24 43.18797 12.01120 22517 ft 380 kts 171°
2026-05-07 22:24 43.16227 12.01927 22081 ft 377 kts 171°
2026-05-07 22:24 43.13681 12.02726 21641 ft 374 kts 170°
2026-05-07 22:24 43.11154 12.03518 21204 ft 371 kts 170°
2026-05-07 22:25 43.08646 12.04303 20756 ft 369 kts 170°
2026-05-07 22:25 43.06150 12.05084 20336 ft 367 kts 170°
2026-05-07 22:25 43.04473 12.05608 20053 ft 366 kts 170°
2026-05-07 22:25 43.01997 12.06380 19630 ft 364 kts 170°
2026-05-07 22:26 42.99534 12.07149 19205 ft 362 kts 170°
2026-05-07 22:26 42.97083 12.07913 18781 ft 361 kts 170°
2026-05-07 22:26 42.94665 12.08666 18347 ft 361 kts 170°
2026-05-07 22:26 42.92221 12.09427 17876 ft 360 kts 170°
2026-05-07 22:27 42.89756 12.10194 17430 ft 358 kts 170°
2026-05-07 22:27 42.87339 12.10945 16988 ft 355 kts 170°
2026-05-07 22:27 42.84934 12.11692 16558 ft 353 kts 170°
2026-05-07 22:27 42.82542 12.12435 16140 ft 351 kts 170°
2026-05-07 22:28 42.80170 12.13170 15742 ft 349 kts 169°
2026-05-07 22:28 42.77849 12.13890 15474 ft 343 kts 169°
2026-05-07 22:28 42.75556 12.14601 15328 ft 333 kts 169°
2026-05-07 22:28 42.73299 12.15300 15184 ft 324 kts 169°
2026-05-07 22:29 42.71157 12.15963 15047 ft 316 kts 170°
2026-05-07 22:29 42.69015 12.16259 14752 ft 308 kts 188°
2026-05-07 22:29 42.66909 12.15789 14415 ft 306 kts 192°
2026-05-07 22:29 42.64821 12.15265 14018 ft 303 kts 192°
2026-05-07 22:30 42.62771 12.14754 13620 ft 296 kts 192°
2026-05-07 22:30 42.60761 12.14262 13205 ft 290 kts 192°
2026-05-07 22:30 42.58794 12.13790 12825 ft 284 kts 192°
2026-05-07 22:30 42.56870 12.13333 12453 ft 278 kts 191°
2026-05-07 22:31 42.54981 12.12887 12113 ft 272 kts 191°
2026-05-07 22:31 42.53132 12.12453 11754 ft 267 kts 191°
2026-05-07 22:31 42.51320 12.12028 11417 ft 262 kts 191°
2026-05-07 22:31 42.49534 12.11610 11085 ft 258 kts 191°
2026-05-07 22:32 42.47775 12.11199 10761 ft 258 kts 191°
2026-05-07 22:32 42.45981 12.10779 10452 ft 266 kts 191°
2026-05-07 22:32 42.44145 12.10351 10104 ft 269 kts 190°
2026-05-07 22:32 42.42292 12.09920 9748 ft 271 kts 190°
2026-05-07 22:33 42.40431 12.09488 9358 ft 270 kts 191°
2026-05-07 22:33 42.38583 12.09289 8964 ft 266 kts 172°
2026-05-07 22:33 42.36826 12.09934 8652 ft 259 kts 162°
2026-05-07 22:33 42.35127 12.10678 8309 ft 254 kts 163°
2026-05-07 22:34 42.33458 12.11398 7976 ft 249 kts 163°
2026-05-07 22:34 42.31820 12.12098 7668 ft 245 kts 163°
2026-05-07 22:34 42.30208 12.12786 7355 ft 241 kts 163°
2026-05-07 22:34 42.28624 12.13460 7054 ft 237 kts 162°
2026-05-07 22:35 42.27052 12.14127 6794 ft 235 kts 162°
2026-05-07 22:35 42.25504 12.14783 6481 ft 232 kts 162°
2026-05-07 22:35 42.23970 12.15433 6162 ft 230 kts 162°
2026-05-07 22:35 42.22453 12.16074 5888 ft 226 kts 162°
2026-05-07 22:36 42.20955 12.16706 5600 ft 226 kts 162°
2026-05-07 22:36 42.19458 12.17337 5323 ft 226 kts 162°
2026-05-07 22:36 42.17958 12.17971 5128 ft 226 kts 162°
2026-05-07 22:36 42.16458 12.18604 4866 ft 227 kts 161°
2026-05-07 22:37 42.14928 12.19137 4472 ft 229 kts 175°
2026-05-07 22:37 42.13356 12.18800 4206 ft 230 kts 194°
2026-05-07 22:37 42.11821 12.18291 4025 ft 231 kts 192°
2026-05-07 22:37 42.10254 12.17810 3767 ft 232 kts 191°
2026-05-07 22:38 42.08679 12.17332 3474 ft 232 kts 191°
2026-05-07 22:38 42.07114 12.16888 3236 ft 228 kts 184°
2026-05-07 22:38 42.05600 12.17216 3150 ft 217 kts 157°
2026-05-07 22:38 42.04163 12.17896 3059 ft 222 kts 158°
2026-05-07 22:39 42.02675 12.18547 3001 ft 228 kts 159°
2026-05-07 22:39 42.01168 12.19195 2717 ft 225 kts 160°
2026-05-07 22:39 41.99716 12.19804 2594 ft 212 kts 160°
2026-05-07 22:39 41.98345 12.20383 2497 ft 199 kts 159°
2026-05-07 22:40 41.97076 12.20926 2484 ft 188 kts 159°
2026-05-07 22:40 41.95814 12.21461 2310 ft 189 kts 159°
2026-05-07 22:40 41.94588 12.21973 2071 ft 180 kts 159°
2026-05-07 22:40 41.93417 12.22462 1828 ft 172 kts 159°
2026-05-07 22:41 41.92289 12.22934 1616 ft 168 kts 159°
2026-05-07 22:41 41.91190 12.23393 1390 ft 163 kts 159°
2026-05-07 22:41 41.90118 12.23842 1159 ft 160 kts 160°
2026-05-07 22:41 41.89053 12.24288 977 ft 161 kts 161°
2026-05-07 22:42 41.87996 12.24731 770 ft 158 kts 162°
2026-05-07 22:42 41.86964 12.25162 569 ft 157 kts 162°
2026-05-07 22:42 41.85911 12.25603 362 ft 160 kts 163°
2026-05-07 22:42 41.84846 12.26049 138 ft 159 kts 163°
2026-05-07 22:43 41.83836 12.26469 18 ft 145 kts 163°
2026-05-07 22:43 41.82953 12.26839 12 ft 121 kts 162°
2026-05-07 22:43 41.82276 12.27121 9 ft 80 kts 162°
2026-05-07 22:43 41.81779 12.27329 12 ft 67 kts 162°
2026-05-07 22:44 41.81526 12.27426 13 ft 26 kts 179°
2026-05-07 22:44 41.81382 12.27354 11 ft 21 kts 233°
2026-05-07 22:44 41.81298 12.27224 11 ft 18 kts 193°
2026-05-07 22:44 41.81179 12.27258 13 ft 18 kts 163°
2026-05-07 22:45 41.81061 12.27307 11 ft 17 kts 162°
2026-05-07 22:45 41.80949 12.27349 14 ft 16 kts 170°
2026-05-07 22:45 41.80838 12.27334 11 ft 16 kts 191°
2026-05-07 22:45 41.80732 12.27306 14 ft 15 kts 199°
2026-05-07 22:46 41.80654 12.27222 12 ft 15 kts 245°
2026-05-07 22:46 41.80621 12.27097 12 ft 14 kts 250°
2026-05-07 22:46 41.80588 12.26979 14 ft 14 kts 250°
2026-05-07 22:46 41.80543 12.26816 14 ft 21 kts 250°
2026-05-07 22:47 41.80493 12.26633 14 ft 21 kts 250°
2026-05-07 22:47 41.80451 12.26481 14 ft 14 kts 249°
2026-05-07 22:47 41.80418 12.26361 14 ft 13 kts 249°
2026-05-07 22:47 41.80387 12.26250 16 ft 13 kts 250°
2026-05-07 22:48 41.80344 12.26123 13 ft 17 kts 225°
2026-05-07 22:48 41.80238 12.26049 15 ft 17 kts 204°
2026-05-07 22:48 41.80134 12.25985 13 ft 16 kts 204°
2026-05-07 22:48 41.80038 12.25926 13 ft 15 kts 205°
2026-05-07 22:49 41.79947 12.25869 13 ft 14 kts 204°
2026-05-07 22:49 41.79853 12.25838 13 ft 14 kts 173°
2026-05-07 22:49 41.79767 12.25800 13 ft 13 kts 205°
2026-05-07 22:49 41.79702 12.25760 13 ft 7 kts 208°
2026-05-07 22:50 41.79684 12.25769 13 ft 2 kts 107°
2026-05-07 22:50 41.79678 12.25791 13 ft 3 kts 114°
2026-05-07 22:50 41.79670 12.25814 13 ft 2 kts 114°
2026-05-07 22:50 41.79669 12.25817 13 ft 0 kts 115°